Location: Krakow
(50.0212°N, 19.9423°E)
Time: 14:12:08
(UTC+02:00)

NOAA 18 - Pass Details

Date: 29 April 2025
Orbit: 837 x 857 km, 98.8° (Epoch: 14 May)

Event Time Altitude Azimuth Distance (km) Brightness Sun altitude
Exits shadow 00:34:31 12° 257° (WSW) 2,363 7.4 -25.5°
Maximum altitude 00:36:06 13° 275° (W) 2,276 7.5 -25.5°
Drops below altitude 10° 00:38:38 10° 302° (WNW) 2,500 8.0 -25.5°
Sets 00:42:30 0° 330° (NNW) 3,443 9.3 -25.5°
